Regional Weather Roundup
Issued by NWS

Home | Current Version | Previous Version | Text Only | Print | Product List | Glossary On
Versions: 1 2 3 4 5 6 7 8 9 10 11 12 13 14 15 16 17 18 19 20 21 22 23 24 25 26 27 28 29 30 31 32 33 34 35 36 37 38 39 40 41 42 43 44 45 46 47 48 49 50
875
ASUS45 KBOI 271410
RWRID

IDAHO REGIONAL WEATHER ROUNDUP
NATIONAL WEATHER SERVICE BOISE ID
800 AM MDT WED JUL 27 2016

NOTE: "FAIR" INDICATES FEW OR NO CLOUDS BELOW 12000 FEET
WITH NO SIGNIFICANT WEATHER AND/OR OBSTRUCTIONS TO VISIBILITY

IDZ012-014-271500-
SOUTHWEST IDAHO


CITY           SKY/WX    TMP DP  RH WIND       PRES   REMARKS
BOISE          SUNNY     72  41  32 S9        30.05R
CALDWELL       SUNNY     68  57  68 N6        30.04R
MOUNTAIN HOME  SUNNY     67  44  42 E5        30.06R
$$

IDZ016-017-271500-
SOUTHCENTRAL IDAHO


CITY           SKY/WX    TMP DP  RH WIND       PRES   REMARKS
BURLEY         SUNNY     60  50  69 CALM      30.14R
JEROME         SUNNY     64  45  49 E8        30.14R
TWIN FALLS     SUNNY     70  35  27 S10       30.14R
$$

IDZ019>023-271500-
SOUTHEAST IDAHO


CITY           SKY/WX    TMP DP  RH WIND       PRES   REMARKS
IDAHO FALLS    SUNNY     56  45  66 N9        30.18R
POCATELLO      SUNNY     61  42  49 CALM      30.17R
REXBURG        SUNNY     55  43  63 CALM      30.19S
$$

IDZ006-010-011-018-031-032-271500-
CENTRAL IDAHO MOUNTAINS


CITY           SKY/WX    TMP DP  RH WIND       PRES   REMARKS
MCCALL         SUNNY     57  47  69 CALM      30.19R
HAILEY         MOSUNNY   59  39  47 NW12      30.25R
STANLEY          N/A     47  36  65 CALM      30.33R
SALMON         SUNNY     52  45  76 CALM      30.19S
CHALLIS        SUNNY     57  43  59 CALM      30.24R
$$

IDZ002-004-006-007-026-271500-
NORTHERN IDAHO


CITY           SKY/WX    TMP DP  RH WIND       PRES   REMARKS
LEWISTON       SUNNY     73  54  51 E5        30.03R
LOWELL           N/A     60  56  86 CALM      30.08R
COEUR D`ALENE  SUNNY     64  54  68 NE15      30.05R
MULLAN PASS    SUNNY     62  44  51 SE8       30.25S
$$




USA.gov is the U.S. government's official web portal to all federal, state and local government web resources and services.